Showing default

GONETS D1 3, 23789

Orbit data source: Space-Track

GONETS D1 3, 23789 is a payload satellite owned by Gonets (CIS) in LEO that was launched on Mon, 19 Feb 1996 UTC via a TSIKLON-3 launch vehicle from the Plesetsk Missile And Space Complex (PKMTR). Payloads include a variety of satellites, spacecraft, and rockets equipped with specific instruments for various scientific and technological missions. These include communications satellites like Starlink; space stations such as the ISS; scientific satellites like the Hubble; Earth observation satellites from companies like Planet Labs, Umbra, and HawkEye 360; GPS; miniature CubeSats for education and research; and military/defense satellites.

Loading next visibility...
GONETS D1 3 details
Identifier
23789, 1996-009C
Orbit
LEO
Last TLE update10 hours ago
Origin
Flag of CISGonets (CIS)
ManufacturerNPO PM
MissionNon-operational Civil Communications
Bus & MotorSTRELA-3, Unknown motor
Mass225 kg wet, 225 kg dry
Launch date (UTC)
1996-02-19 (29 years ago)
Launch vehicle
TSIKLON-3
Launch site
Plesetsk Missile And Space Complex (PKMTR)
Object type
Payload
Rocket body
Debris
Shape & HBRCyl + 1 Ant, 7 m
Radar Cross Section1.798 m², Medium (>0.1 m² and < 1m²)

Expand to show TLE details & history

TLE from 10 hours ago
0 GONETS D1 3
1 23789U 96009C   24361.35608388  .00000022  00000-0  64537-4 0  9993
2 23789  82.5795 303.2375 0004692 192.9931 167.1040 12.62663800329811
Epoch: 2024-12-26T08:32Z
Definitive object data (Epoch: 2024-12-26T08:32:45.647Z)
Latitude-0.00002°
Longitude79.71064°
Altitude1,418.263 km
Speed7.15 km/s
True Right ascension20h 12m 56s
True Declination0° 00' 00"
Sunlit
Object was in daylight at TLE epoch
Visualization TLE readout
Latitude82.07281°
Longitude147.99338°
Altitude1,426.439 km
Speed7.154 km/s
Apparent Right ascension05h 07m 11s
Apparent Declination34° 42' 43"
Sunlit
Object is in daylight
Visualization observer readout
Local Sidereal Time17:53:22
Azimuth9.788° NNE
Elevation-14.615°
Doppler factor1
Orbital elements
Apogee altitude1,412.943 km
Perigee altitude1,405.635 km
Semi-major axis7,787.426 km
Eccentricity0.0004692
Inclination82.5795°
RAAN303.2375°
Arg. of periapsis192.9931°
True anomaly167.11599°
Mean anomaly167.104°
Eccentric anomaly167.11°
Mean motion3.15829 °/min
BSTAR0.000064537
Orbital period113.99 mins
Loading maneuver chart data...
Loading historical data...
Loading historical data...
Loading historical data...
Loading historical data...
Loading historical data...
Loading historical data...
Loading historical data...

GONETS D1 3 Visibility forecast

Observer location: undefined°, undefined

Span
Click to sort rows by Start time (UTC) header in descending order
Start Az.
Max El. time (UTC)
Max El. Az.
Max El.
End time (UTC)
End Az.
14 mins2024-12-26 20:02:51.585Z148.146° SSE2024-12-26 20:09:51.585Z88.819° E30.977°2024-12-26 20:16:51.585Z25.408° NE
13 mins2024-12-26 21:58:51.585Z220.368° SW2024-12-26 22:04:51.585Z285.821° WNW35.361°2024-12-26 22:11:51.585Z353.528° N
6 mins2024-12-27 06:06:51.585Z39.374° NE2024-12-27 06:09:51.585Z62.207° ENE13.484°2024-12-27 06:12:51.585Z84.592° E
15 mins2024-12-27 07:58:51.585Z356.63° N2024-12-27 08:05:51.585Z65.091° ENE43.929°2024-12-27 08:13:51.585Z166.356° S
9 mins2024-12-27 09:55:51.585Z315.744° NNW2024-12-27 09:59:51.585Z282.632° WNW19.702°2024-12-27 10:04:51.585Z241.392° WSW
|